Home > Weather > Pali > Past weeks

Flag for India Past Weather in Pali, Rajasthan, India — Yesterday and Last 2 Weeks

Now
77 °F

Fog.


Feels Like: 78 °F
Forecast: 80 / 90 °F
Wind: 6 mph from Northwest

Location: Jaipur / Sanganer

Current Time: Jul 30, 2016 at 3:14:49 AM

Latest Report: Jul 30, 2016 at 2:30 AM


Visibility: 1 mi

Pressure: 29.62 "Hg

Humidity: 100%

Dew Point: 77 °F

Location of PaliLocation

Past Weather in Pali — Graph

°F

Pali Temperature Yesterday

Maximum temperature yesterday: 88 °F (at 1:30 PM)
Minimum temperature yesterday: 77 °F (at 7:00 PM)
Average temperature yesterday: 80 °F

High & Low Weather Summary for the Past Weeks

 TemperatureHumidityPressure
High97 °F (Jul 20, 4:00 PM)100% (Jul 15, 11:00 AM)29.74 "Hg (Jul 15, 11:00 AM)
Low75 °F (Jul 16, 2:00 PM)39% (Jul 23, 2:00 PM)29.53 "Hg (Jul 15, 9:00 PM)
Average85 °F75%29.64 "Hg
* Reported Jul 15 1:00 AM — Jul 30 1:00 AM, Pali, Weather by CustomWeather, © 2016

Note: Actual official high and low records may vary slightly from our data, if they occured in-between our weather recording intervals... More about our weather records

Advertising

Pali Weather History for the Previous 24 Hours

Scroll right to see more
 ConditionsComfort  
Time TempWeatherWind HumidityBarometerVisibility
1:00 AM
Sat, Jul 30
77 °FFog.5 mph100%29.65 "Hg1 mi
12:00 AM77 °FFog.5 mph100%29.62 "Hg1 mi
11:30 PM
Fri, Jul 29
79 °FLight rain. Mostly cloudy.1 mph94%29.62 "Hg1 mi
11:00 PM77 °FLight rain. Mostly cloudy.No wind100%29.62 "Hg1 mi
10:30 PM77 °FLight rain. Mostly cloudy.No wind100%29.62 "Hg1 mi
10:00 PM77 °FLight rain. Mostly cloudy.3 mph100%29.62 "Hg1 mi
9:30 PM77 °FRain. Mostly cloudy.3 mph100%29.62 "Hg1 mi
9:00 PM77 °FRain. Mostly cloudy.5 mph100%29.65 "Hg1 mi
8:00 PM77 °FRain. Mostly cloudy.10 mph100%29.62 "Hg1 mi
7:00 PM77 °FLight rain. More clouds than sun.8 mph94%29.62 "Hg1 mi
6:30 PM79 °FLight rain. More clouds than sun.8 mph94%29.59 "Hg1 mi
6:00 PM79 °FLight rain. More clouds than sun.6 mph94%29.59 "Hg1 mi
5:30 PM79 °FLight rain. More clouds than sun.7 mph94%29.59 "Hg1 mi
5:00 PM79 °FLight rain. More clouds than sun.7 mph94%29.59 "Hg1 mi
4:00 PM79 °FRain. More clouds than sun.7 mph94%29.56 "Hg1 mi
3:30 PM79 °FLight rain. More clouds than sun.7 mph94%29.59 "Hg1 mi
3:00 PM82 °FRain. More clouds than sun.9 mph79%29.59 "Hg1 mi
2:00 PM86 °FBroken clouds.3 mph70%29.59 "Hg4 mi
1:30 PM88 °FBroken clouds.7 mph66%29.62 "Hg4 mi
1:00 PM86 °FMore clouds than sun.7 mph75%29.62 "Hg4 mi
12:30 PM86 °FMore clouds than sun.6 mph70%29.65 "Hg4 mi
12:00 PM84 °FMore clouds than sun.7 mph74%29.65 "Hg4 mi
11:30 AM84 °FMore clouds than sun.6 mph79%29.65 "Hg4 mi
11:00 AM84 °FMore clouds than sun.7 mph79%29.68 "Hg4 mi
10:30 AM82 °FMore clouds than sun.6 mph84%29.68 "Hg2 mi
10:00 AM81 °FMore clouds than sun.6 mph89%29.68 "Hg2 mi
8:30 AM79 °FFog.6 mph100%29.65 "Hg1 mi
8:00 AM79 °FFog.7 mph100%29.65 "Hg1 mi
7:00 AM79 °FMore clouds than sun.2 mph100%29.65 "Hg2 mi
6:30 AM79 °FMore clouds than sun.1 mph100%29.62 "Hg1 mi
6:00 AM79 °FMostly cloudy.No wind100%29.62 "Hg1 mi
5:00 AM81 °FMostly cloudy.1 mph94%29.62 "Hg1 mi
4:00 AM79 °FMostly cloudy.No wind100%29.62 "Hg2 mi
3:30 AM79 °FMostly cloudy.No wind100%29.62 "Hg2 mi
3:00 AM79 °FMostly cloudy.No wind94%29.62 "Hg2 mi
Weather by CustomWeather, © 2016

See weather overviewHow to use our weather pages